Location: Waco, TX
(31.5481°N, 97.1672°W)
Time: 19:43:26
(UTC-05:00)

ISS - Visible Passes

Search period start: 23 May 2018 00:00
Search period end: 02 June 2018 00:00
Orbit: 402 x 407 km, 51.6° (Epoch: 24 May)

Date Brightness Start Highest point End Pass type
(mag) Time Alt. Az. Time Alt. Az. Time Alt. Az.
23 May -3.1 04:38:03 10° NW 04:41:16 54° NE 04:44:27 10° ESE visible
23 May -1.4 21:14:39 10° W 21:17:30 27° NW 21:20:20 10° NNE visible
24 May -2.1 05:26:34 16° SSW 05:26:34 16° SSW 05:27:48 10° S visible
25 May -0.5 21:08:18 10° WNW 21:09:48 12° NNW 21:11:18 10° N visible
